QPF
0.00 0.00 0.00 0.00 0.00 0.03 0.03 0.03 0.00 0.00 0.00 0.00 0.00 0.00 0.00 0.00 0.00 0.00 0.00 0.01 0.00 0.00 0.00 0.00 0.00 0.00 0.00 0.00 0.01 0.00 0.00 0.00 0.00 0.00 0.01 0.01 0.00 0.00 0.00 0.00 0.00 0.00 0.00
0.00 0.00 0.00 0.00 0.00 0.03 0.02 0.04 0.02 0.00 0.00 0.00 0.00 0.00 0.00 0.00 0.00 0.00 0.00 0.00 0.00 0.00 0.00 0.00 0.00 0.00 0.00 0.00 0.00 0.00 0.00 0.00 0.00 0.00 0.00 0.00 0.00 0.00 0.00 0.01 0.01 0.00 0.00
0.00 0.00 0.00 0.01 0.02 0.05 0.06 0.04 0.01 0.00 0.00 0.00 0.00 0.00 0.00 0.00 0.00 0.00 0.00 0.00 0.00 0.00 0.00 0.00 0.00 0.00 0.00 0.00 0.00 0.00 0.00 0.00 0.00 0.00 0.00 0.00 0.00 0.02 0.03 0.06 0.01 0.00 0.00
0.00 0.00 0.00 0.00 0.01 0.04 0.06 0.06 0.03 0.02 0.01 0.01 0.00 0.00 0.00 0.00 0.00 0.00 0.00 0.00 0.00 0.01 0.00 0.00 0.00 0.00 0.00 0.00 0.00 0.00 0.00 0.00 0.00 0.00 0.00 0.00 0.00 0.09 0.04 0.01 0.00 0.00 0.00
0.00 0.00 0.00 0.01 0.00 0.02 0.04 0.04 0.04 0.04 0.04 0.03 0.02 0.02 0.00 0.00 0.00 0.00 0.00 0.00 0.01 0.03 0.01 0.00 0.00 0.00 0.00 0.00 0.00 0.00 0.00 0.00 0.00 0.00 0.00 0.00 0.00 0.10 0.06 0.01 0.00 0.00 0.00
0.00 0.00 0.00 0.00 0.00 0.00 0.01 0.02 0.03 0.01 0.00 0.00 0.01 0.03 0.03 0.02 0.01 0.01 0.00 0.00 0.01 0.02 0.01 0.00 0.00 0.00 0.00 0.00 0.00 0.00 0.00 0.00 0.00 0.00 0.00 0.00 0.00 0.06 0.14 0.08 0.00 0.00 0.00
0.00 0.00 0.00 0.01 0.02 0.01 0.01 0.00 0.00 0.00 0.00 0.00 0.00 0.00 0.02 0.05 0.07 0.07 0.00 0.00 0.00 0.01 0.02 0.02 0.00 0.00 0.00 0.00 0.00 0.00 0.00 0.00 0.00 0.00 0.00 0.00 0.00 0.02 0.08 0.01 0.00 0.00 0.00
0.00 0.00 0.00 0.01 0.00 0.00 0.01 0.00 0.00 0.00 0.00 0.00 0.01 0.01 0.01 0.03 0.06 0.07 0.03 0.01 0.00 0.00 0.01 0.01 0.03 0.00 0.00 0.00 0.00 0.00 0.00 0.00 0.00 0.00 0.00 0.00 0.00 0.00 0.01 0.00 0.00 0.00 0.03
0.00 0.00 0.00 0.00 0.00 0.00 0.00 0.00 0.00 0.00 0.00 0.00 0.00 0.01 0.02 0.01 0.03 0.04 0.03 0.02 0.03 0.03 0.03 0.04 0.04 0.01 0.00 0.00 0.00 0.00 0.00 0.00 0.00 0.00 0.00 0.00 0.00 0.00 0.05 0.00 0.04 0.02 0.04
0.00 0.00 0.00 0.00 0.00 0.00 0.00 0.00 0.00 0.00 0.00 0.00 0.00 0.00 0.00 0.00 0.01 0.02 0.02 0.02 0.03 0.04 0.02 0.02 0.03 0.04 0.00 0.00 0.00 0.00 0.00 0.00 0.00 0.00 0.00 0.00 0.00 0.04 0.19 0.11 0.15 0.12 0.07
0.00 0.00 0.00 0.00 0.00 0.00 0.00 0.00 0.00 0.00 0.00 0.00 0.00 0.00 0.00 0.00 0.00 0.00 0.01 0.01 0.02 0.06 0.06 0.03 0.03 0.03 0.00 0.00 0.00 0.00 0.00 0.00 0.00 0.00 0.00 0.00 0.01 0.02 0.05 0.10 0.11 0.07 0.06
0.00 0.00 0.00 0.00 0.00 0.00 0.00 0.00 0.00 0.00 0.00 0.00 0.00 0.00 0.00 0.00 0.00 0.00 0.00 0.00 0.00 0.04 0.05 0.05 0.05 0.03 0.00 0.00 0.00 0.00 0.00 0.00 0.00 0.00 0.00 0.00 0.01 0.03 0.03 0.07 0.04 0.01 0.03
0.00 0.00 0.00 0.00 0.00 0.00 0.00 0.00 0.00 0.00 0.00 0.00 0.00 0.00 0.00 0.00 0.00 0.00 0.00 0.00 0.00 0.00 0.05 0.07 0.04 0.01 0.01 0.00 0.00 0.00 0.00 0.00 0.00 0.00 0.00 0.00 0.00 0.03 0.06 0.05 0.03 0.03 0.01
0.00 0.00 0.00 0.00 0.00 0.00 0.00 0.00 0.00 0.00 0.00 0.00 0.00 0.00 0.00 0.00 0.00 0.00 0.00 0.00 0.00 0.00 0.01 0.05 0.06 0.09 0.05 0.01 0.00 0.00 0.00 0.00 0.00 0.00 0.00 0.00 0.00 0.00 0.02 0.04 0.03 0.01 0.00
0.00 0.00 0.00 0.00 0.00 0.00 0.00 0.00 0.00 0.00 0.00 0.00 0.00 0.00 0.00 0.00 0.00 0.00 0.00 0.00 0.00 0.00 0.00 0.01 0.03 0.04 0.04 0.04 0.01 0.00 0.00 0.00 0.00 0.00 0.00 0.00 0.00 0.00 0.01 0.03 0.06 0.04 0.02
0.00 0.00 0.00 0.00 0.00 0.00 0.00 0.00 0.00 0.00 0.00 0.00 0.00 0.00 0.00 0.00 0.00 0.00 0.00 0.00 0.00 0.00 0.00 0.00 0.01 0.02 0.03 0.05 0.03 0.00 0.00 0.00 0.00 0.00 0.00 0.00 0.00 0.00 0.00 0.02 0.02 0.01 0.03
0.00 0.00 0.00 0.00 0.00 0.00 0.00 0.00 0.00 0.00 0.00 0.00 0.00 0.00 0.00 0.00 0.00 0.00 0.00 0.00 0.00 0.00 0.00 0.00 0.01 0.02 0.02 0.01 0.02 0.01 0.01 0.00 0.00 0.00 0.00 0.00 0.00 0.00 0.00 0.01 0.03 0.04 0.02
0.00 0.00 0.00 0.00 0.00 0.00 0.00 0.00 0.00 0.00 0.00 0.00 0.00 0.00 0.00 0.00 0.00 0.00 0.00 0.00 0.00 0.00 0.00 0.00 0.01 0.01 0.01 0.01 0.02 0.01 0.01 0.01 0.00 0.00 0.00 0.00 0.00 0.00 0.00 0.00 0.02 0.03 0.04
0.00 0.00 0.00 0.00 0.00 0.00 0.00 0.00 0.00 0.00 0.00 0.00 0.00 0.00 0.00 0.00 0.00 0.00 0.00 0.00 0.00 0.00 0.00 0.00 0.00 0.00 0.00 0.00 0.00 0.00 0.01 0.01 0.00 0.00 0.00 0.00 0.00 0.00 0.01 0.01 0.00 0.01 0.01
0.00 0.00 0.00 0.00 0.00 0.00 0.00 0.00 0.00 0.00 0.00 0.00 0.00 0.00 0.00 0.00 0.00 0.00 0.00 0.00 0.00 0.00 0.00 0.00 0.00 0.00 0.00 0.00 0.00 0.00 0.00 0.00 0.00 0.00 0.00 0.00 0.00 0.00 0.00 0.00 0.00 0.00 0.00
0.00 0.00 0.00 0.00 0.00 0.00 0.00 0.00 0.00 0.00 0.00 0.00 0.00 0.00 0.00 0.00 0.00 0.00 0.00 0.00 0.00 0.00 0.00 0.00 0.00 0.00 0.00 0.00 0.00 0.00 0.00 0.00 0.00 0.00 0.00 0.00 0.00 0.00 0.00 0.00 0.00 0.00 0.00
0.00 0.00 0.00 0.00 0.00 0.00 0.00 0.00 0.00 0.00 0.00 0.00 0.00 0.00 0.00 0.00 0.00 0.00 0.00 0.00 0.00 0.00 0.00 0.00 0.00 0.00 0.00 0.00 0.00 0.00 0.00 0.00 0.00 0.00 0.00 0.00 0.00 0.00 0.00 0.00 0.00 0.00 0.00
0.00 0.00 0.00 0.00 0.00 0.00 0.00 0.00 0.00 0.00 0.00 0.00 0.00 0.00 0.00 0.00 0.00 0.00 0.00 0.00 0.00 0.00 0.00 0.00 0.00 0.00 0.00 0.00 0.00 0.00 0.00 0.00 0.00 0.00 0.00 0.00 0.00 0.00 0.00 0.00 0.00 0.00 0.00
0.00 0.00 0.00 0.00 0.00 0.00 0.00 0.00 0.00 0.00 0.00 0.00 0.00 0.00 0.00 0.00 0.00 0.00 0.00 0.00 0.00 0.00 0.00 0.00 0.00 0.00 0.00 0.00 0.00 0.00 0.00 0.00 0.00 0.00 0.00 0.00 0.00 0.00 0.00 0.00 0.00 0.00 0.00
0.00 0.00 0.00 0.00 0.00 0.00 0.00 0.00 0.00 0.00 0.00 0.00 0.00 0.00 0.00 0.00 0.00 0.00 0.00 0.00 0.00 0.00 0.00 0.00 0.00 0.00 0.00 0.00 0.00 0.00 0.00 0.00 0.00 0.00 0.00 0.00 0.00 0.00 0.00 0.00 0.00 0.00 0.00
0.00 0.00 0.00 0.00 0.00 0.00 0.00 0.00 0.00 0.00 0.00 0.00 0.00 0.00 0.00 0.00 0.00 0.00 0.00 0.00 0.00 0.00 0.00 0.01 0.00 0.00 0.00 0.00 0.00 0.00 0.00 0.00 0.00 0.00 0.00 0.00 0.00 0.00 0.00 0.00 0.00 0.00 0.00
MSLP
1017.25 1017.12 1017.07 1017.10 1017.15 1017.26 1017.42 1017.51 1017.69 1017.74 1017.81 1017.88 1017.87 1018.03 1018.11 1018.18 1018.23 1018.32 1018.43 1018.50 1018.59 1018.62 1018.66 1018.77 1018.87 1018.98 1019.04 1019.12 1019.30 1019.43 1019.54 1019.62 1019.63 1019.71 1019.69 1019.62 1019.69 1019.73 1019.80 1019.78 1019.78 1019.74 1020.02
1017.08 1017.23 1017.25 1017.25 1017.31 1017.40 1017.51 1017.64 1017.90 1017.94 1018.05 1018.19 1018.24 1018.32 1018.35 1018.48 1018.57 1018.60 1018.68 1018.84 1018.90 1018.93 1018.97 1018.99 1019.17 1019.28 1019.39 1019.44 1019.59 1019.75 1019.93 1020.04 1020.09 1020.08 1020.07 1020.04 1019.98 1020.04 1020.13 1020.17 1020.14 1020.22 1020.35
1017.24 1017.37 1017.43 1017.53 1017.49 1017.64 1017.78 1017.94 1018.01 1018.09 1018.33 1018.41 1018.51 1018.53 1018.55 1018.69 1018.86 1018.91 1018.97 1019.05 1019.13 1019.13 1019.18 1019.29 1019.40 1019.53 1019.65 1019.83 1019.89 1020.00 1020.19 1020.35 1020.44 1020.43 1020.40 1020.24 1020.22 1020.33 1020.39 1020.53 1020.51 1020.52 1020.62
1017.52 1017.64 1017.73 1017.74 1017.78 1017.87 1017.94 1018.04 1018.26 1018.31 1018.41 1018.56 1018.66 1018.75 1018.85 1018.94 1019.06 1019.06 1019.10 1019.24 1019.28 1019.31 1019.46 1019.65 1019.75 1019.85 1019.91 1020.01 1020.16 1020.27 1020.42 1020.57 1020.68 1020.71 1020.55 1020.54 1020.46 1020.57 1020.62 1020.67 1020.81 1020.89 1021.00
1017.72 1017.86 1017.97 1018.05 1018.12 1018.05 1018.30 1018.35 1018.37 1018.43 1018.69 1018.71 1018.80 1018.91 1018.96 1019.08 1019.16 1019.20 1019.25 1019.31 1019.46 1019.69 1019.73 1019.87 1019.96 1020.07 1020.17 1020.18 1020.27 1020.45 1020.61 1020.73 1020.85 1020.82 1020.88 1020.84 1020.71 1020.68 1020.63 1020.78 1020.97 1021.09 1021.20
1018.07 1018.15 1018.20 1018.26 1018.37 1018.45 1018.59 1018.69 1018.71 1018.83 1018.92 1018.96 1019.01 1019.16 1019.08 1019.13 1019.24 1019.33 1019.47 1019.55 1019.63 1019.74 1019.91 1020.05 1020.10 1020.22 1020.28 1020.38 1020.42 1020.52 1020.73 1020.87 1020.94 1020.90 1020.99 1021.06 1021.01 1021.08 1020.84 1021.05 1021.22 1021.36 1021.42
1018.50 1018.55 1018.50 1018.52 1018.59 1018.70 1018.77 1018.91 1018.98 1019.04 1019.13 1019.18 1019.25 1019.27 1019.27 1019.31 1019.33 1019.45 1019.64 1019.68 1019.79 1019.85 1019.96 1020.09 1020.21 1020.32 1020.38 1020.45 1020.50 1020.64 1020.81 1020.97 1020.91 1020.89 1021.03 1021.17 1021.11 1021.19 1021.17 1021.29 1021.45 1021.52 1021.62
1018.91 1018.97 1018.90 1018.85 1018.89 1018.95 1019.01 1019.08 1019.15 1019.26 1019.31 1019.35 1019.35 1019.45 1019.36 1019.48 1019.55 1019.63 1019.74 1019.81 1019.87 1019.94 1020.01 1020.09 1020.20 1020.34 1020.48 1020.53 1020.57 1020.79 1020.89 1020.97 1020.94 1020.96 1021.07 1021.25 1021.34 1021.30 1021.29 1021.47 1021.57 1021.56 1021.69
1019.50 1019.52 1019.52 1019.41 1019.33 1019.32 1019.38 1019.39 1019.43 1019.49 1019.54 1019.56 1019.58 1019.58 1019.63 1019.60 1019.60 1019.74 1019.82 1019.85 1019.87 1019.93 1020.04 1020.10 1020.17 1020.34 1020.47 1020.65 1020.69 1020.85 1020.97 1021.01 1020.85 1020.99 1021.10 1021.15 1021.35 1021.30 1021.17 1021.44 1021.48 1021.47 1021.73
1020.15 1020.18 1020.09 1019.90 1019.71 1019.57 1019.50 1019.52 1019.51 1019.58 1019.69 1019.72 1019.76 1019.80 1019.82 1019.81 1019.78 1019.77 1019.85 1019.81 1019.89 1019.94 1019.97 1020.07 1020.19 1020.27 1020.42 1020.57 1020.69 1020.88 1021.00 1021.08 1020.90 1020.99 1021.10 1021.11 1021.20 1021.22 1021.09 1021.26 1021.42 1021.56 1021.62
1021.27 1021.22 1021.11 1020.97 1020.63 1020.28 1020.07 1019.92 1019.77 1019.69 1019.73 1019.78 1019.84 1019.87 1019.81 1019.78 1019.78 1019.82 1019.86 1019.92 1019.90 1019.86 1019.94 1020.04 1020.09 1020.17 1020.36 1020.53 1020.63 1020.82 1021.02 1020.96 1021.01 1020.86 1021.04 1021.16 1021.02 1020.92 1020.75 1021.17 1021.47 1021.69 1021.82
1022.80 1022.27 1021.92 1021.37 1021.03 1020.91 1020.69 1020.33 1020.19 1020.08 1020.05 1020.01 1019.98 1019.95 1019.86 1019.78 1019.74 1019.78 1019.83 1019.92 1019.90 1019.86 1019.84 1019.86 1019.99 1020.13 1020.33 1020.35 1020.50 1020.76 1020.81 1021.00 1021.05 1020.88 1020.80 1021.11 1021.04 1021.08 1021.10 1021.17 1021.33 1021.63 1021.88
1024.53 1023.71 1023.03 1022.28 1021.61 1021.12 1020.75 1020.58 1020.59 1020.55 1020.40 1020.22 1020.15 1020.18 1020.09 1019.97 1019.86 1019.76 1019.71 1019.66 1019.69 1019.72 1019.66 1019.72 1019.75 1019.85 1019.97 1020.20 1020.37 1020.48 1020.71 1020.90 1020.98 1021.01 1020.90 1021.06 1021.09 1021.04 1021.24 1021.39 1021.44 1021.60 1021.87
1024.93 1024.55 1023.94 1023.10 1022.10 1021.32 1020.97 1020.75 1020.45 1020.42 1020.60 1020.59 1020.48 1020.38 1020.25 1020.07 1019.89 1019.79 1019.72 1019.68 1019.70 1019.64 1019.57 1019.64 1019.68 1019.59 1019.75 1019.89 1020.11 1020.30 1020.50 1020.65 1020.72 1020.82 1020.89 1021.10 1021.12 1021.10 1021.11 1021.25 1021.39 1021.52 1021.73
1026.01 1025.45 1024.73 1023.81 1023.04 1022.01 1021.19 1020.93 1020.79 1020.73 1020.56 1020.36 1020.48 1020.59 1020.58 1020.33 1020.10 1019.91 1019.67 1019.64 1019.60 1019.63 1019.58 1019.49 1019.48 1019.45 1019.50 1019.62 1019.84 1020.07 1020.21 1020.27 1020.50 1020.65 1020.69 1020.93 1021.04 1021.04 1021.09 1021.16 1021.32 1021.48 1021.67
1026.96 1026.12 1025.42 1024.59 1023.98 1022.89 1022.00 1021.38 1021.03 1020.80 1020.70 1020.60 1020.61 1020.38 1020.40 1020.55 1020.35 1020.16 1019.90 1019.71 1019.58 1019.49 1019.39 1019.34 1019.24 1019.36 1019.50 1019.56 1019.48 1019.71 1019.92 1020.01 1020.09 1020.18 1020.37 1020.54 1020.79 1020.90 1020.96 1021.04 1021.15 1021.23 1021.48
1027.92 1027.23 1026.16 1025.20 1024.64 1023.84 1023.09 1022.23 1021.60 1021.15 1020.92 1020.73 1020.71 1020.62 1020.46 1020.27 1020.39 1020.33 1019.98 1019.75 1019.64 1019.58 1019.43 1019.33 1019.17 1019.34 1019.56 1019.72 1019.72 1019.51 1019.51 1019.68 1019.84 1019.93 1020.00 1020.15 1020.29 1020.54 1020.64 1020.76 1020.80 1020.93 1021.14
1028.67 1027.82 1027.18 1026.37 1025.40 1024.54 1023.83 1023.21 1022.42 1021.81 1021.44 1021.12 1020.94 1020.81 1020.70 1020.53 1020.24 1020.19 1020.20 1019.89 1019.77 1019.76 1019.59 1019.38 1019.36 1019.39 1019.46 1019.66 1019.75 1019.73 1019.66 1019.54 1019.46 1019.56 1019.78 1019.83 1019.94 1020.00 1020.18 1020.37 1020.50 1020.66 1020.81
1029.51 1028.71 1027.85 1027.04 1026.29 1025.45 1024.67 1024.00 1023.16 1022.92 1022.37 1021.97 1021.63 1021.30 1021.07 1020.76 1020.59 1020.30 1020.09 1019.97 1019.75 1019.69 1019.66 1019.61 1019.47 1019.46 1019.41 1019.48 1019.47 1019.48 1019.64 1019.52 1019.32 1019.34 1019.26 1019.43 1019.58 1019.69 1019.77 1019.85 1019.95 1020.29 1020.43
1030.16 1029.54 1028.81 1028.00 1027.26 1026.38 1025.46 1024.68 1023.87 1023.38 1023.12 1022.90 1022.83 1022.46 1021.86 1021.31 1020.85 1020.61 1020.19 1019.89 1019.89 1019.66 1019.50 1019.52 1019.64 1019.59 1019.44 1019.25 1019.22 1019.24 1019.19 1019.21 1019.02 1018.91 1018.84 1018.93 1019.05 1019.17 1019.27 1019.45 1019.52 1019.81 1019.90
1030.55 1029.94 1029.39 1028.66 1028.12 1027.39 1026.44 1025.52 1024.46 1024.25 1023.92 1023.45 1023.39 1023.06 1022.65 1022.26 1021.56 1020.84 1020.38 1020.07 1019.78 1019.75 1019.59 1019.49 1019.44 1019.46 1019.43 1019.53 1019.47 1019.04 1018.75 1018.73 1018.73 1018.58 1018.32 1018.28 1018.41 1018.60 1018.78 1018.97 1019.13 1019.25 1019.20
1031.27 1030.87 1030.25 1029.72 1029.11 1028.61 1028.04 1027.39 1026.76 1025.55 1024.71 1024.32 1024.04 1023.56 1023.16 1022.62 1022.06 1021.18 1020.80 1020.30 1019.89 1019.76 1019.49 1019.48 1019.50 1019.37 1019.32 1019.28 1019.13 1019.09 1018.64 1018.33 1018.29 1018.13 1018.06 1018.04 1017.97 1018.09 1018.28 1018.42 1018.61 1018.83 1018.85
1031.78 1031.40 1030.93 1030.36 1029.87 1029.34 1028.94 1028.08 1027.13 1026.06 1025.43 1024.68 1024.33 1023.96 1023.55 1022.93 1022.22 1021.81 1021.14 1020.58 1020.02 1019.64 1019.39 1019.16 1019.18 1019.15 1019.06 1018.96 1018.92 1018.60 1018.67 1018.18 1018.01 1017.85 1017.80 1017.90 1017.92 1017.97 1017.98 1018.06 1018.19 1018.37 1018.59
1032.48 1032.15 1031.69 1031.07 1030.50 1029.80 1029.40 1028.81 1028.27 1027.65 1026.94 1026.24 1025.51 1024.54 1023.82 1023.13 1022.50 1021.74 1021.24 1020.76 1020.08 1019.56 1019.29 1018.93 1018.78 1018.69 1018.73 1018.49 1018.69 1018.53 1018.20 1018.15 1018.00 1017.82 1017.71 1017.46 1017.57 1017.69 1017.81 1017.85 1017.94 1018.03 1018.28
1032.74 1032.39 1031.88 1031.33 1030.85 1030.36 1029.86 1029.39 1028.86 1028.28 1027.79 1026.72 1025.84 1024.87 1023.98 1023.11 1022.58 1021.73 1021.11 1020.73 1020.42 1019.62 1019.14 1018.74 1018.33 1018.26 1018.10 1017.92 1017.85 1017.97 1017.95 1017.90 1017.90 1017.94 1017.55 1017.35 1017.36 1017.16 1017.30 1017.41 1017.42 1017.64 1017.81
1032.77 1032.50 1032.13 1031.56 1031.09 1030.51 1030.01 1029.52 1029.08 1028.55 1027.93 1027.08 1026.15 1025.37 1024.30 1023.62 1022.70 1022.05 1021.32 1020.74 1020.05 1019.87 1019.41 1018.43 1017.87 1017.46 1017.32 1017.35 1017.28 1017.22 1017.15 1017.16 1017.22 1017.29 1017.35 1017.27 1017.14 1016.75 1016.87 1017.00 1017.19 1017.24 1017.37
Thickness
5707 5709 5710 5711 5712 5712 5711 5712 5711 5712 5712 5712 5712 5712 5712 5712 5711 5711 5710 5710 5710 5711 5713 5712 5712 5711 5711 5710 5710 5710 5711 5712 5713 5714 5716 5717 5718 5718 5718 5719 5719 5719 5718
5706 5706 5707 5708 5709 5709 5709 5708 5708 5708 5709 5708 5708 5709 5709 5708 5708 5708 5708 5707 5707 5708 5709 5710 5710 5709 5709 5708 5707 5708 5708 5709 5710 5711 5713 5714 5716 5716 5716 5717 5717 5716 5715
5703 5703 5703 5703 5705 5705 5704 5704 5704 5705 5704 5704 5704 5705 5706 5705 5704 5704 5704 5704 5704 5705 5706 5706 5707 5707 5707 5706 5706 5706 5706 5706 5707 5709 5710 5712 5713 5714 5714 5714 5714 5715 5714
5699 5699 5699 5700 5700 5701 5700 5700 5700 5700 5700 5700 5700 5700 5701 5700 5699 5700 5701 5700 5701 5702 5702 5702 5702 5703 5704 5704 5703 5703 5704 5704 5705 5706 5708 5709 5710 5711 5712 5713 5712 5712 5711
5696 5695 5695 5695 5695 5696 5695 5695 5696 5696 5695 5696 5697 5697 5696 5696 5696 5697 5697 5697 5698 5697 5698 5699 5699 5699 5699 5701 5701 5701 5701 5702 5703 5703 5704 5705 5708 5709 5711 5711 5710 5710 5709
5691 5690 5690 5690 5690 5690 5689 5689 5690 5689 5689 5691 5691 5691 5693 5693 5692 5693 5693 5693 5694 5694 5694 5695 5696 5696 5697 5696 5698 5699 5698 5699 5700 5701 5702 5703 5703 5705 5708 5707 5707 5707 5707
5684 5684 5684 5684 5684 5684 5684 5684 5684 5684 5684 5685 5685 5686 5687 5688 5689 5689 5689 5689 5690 5690 5691 5691 5692 5693 5694 5694 5695 5695 5696 5696 5698 5699 5700 5699 5701 5701 5703 5703 5703 5704 5704
5678 5678 5678 5678 5678 5678 5678 5679 5679 5679 5679 5680 5680 5680 5682 5682 5683 5684 5684 5685 5685 5686 5687 5688 5688 5689 5690 5690 5691 5692 5692 5694 5695 5696 5697 5696 5697 5698 5699 5699 5699 5701 5701
5668 5668 5668 5669 5670 5670 5670 5671 5671 5671 5671 5672 5674 5675 5676 5677 5678 5678 5679 5680 5681 5682 5683 5684 5685 5685 5685 5686 5687 5688 5689 5691 5692 5693 5693 5694 5694 5695 5697 5696 5698 5699 5698
5660 5660 5661 5663 5665 5666 5666 5666 5667 5667 5666 5667 5667 5668 5670 5671 5673 5674 5674 5676 5677 5678 5679 5679 5680 5682 5682 5682 5683 5684 5685 5687 5688 5689 5690 5691 5692 5693 5694 5694 5694 5694 5696
5652 5652 5652 5651 5652 5655 5656 5658 5660 5662 5662 5662 5662 5664 5664 5665 5667 5669 5670 5671 5672 5674 5674 5675 5676 5678 5678 5678 5679 5680 5680 5681 5683 5686 5686 5687 5689 5691 5693 5691 5689 5690 5690
5638 5642 5645 5649 5651 5651 5651 5651 5651 5653 5654 5654 5655 5657 5658 5660 5661 5663 5665 5666 5668 5669 5670 5671 5672 5673 5674 5674 5675 5675 5676 5676 5677 5680 5682 5682 5684 5685 5686 5686 5687 5686 5685
5623 5629 5634 5640 5644 5647 5649 5649 5648 5645 5646 5648 5648 5649 5650 5652 5655 5657 5659 5662 5663 5665 5666 5666 5667 5669 5671 5671 5671 5671 5671 5671 5672 5674 5676 5677 5678 5679 5679 5680 5681 5681 5680
5618 5620 5625 5630 5636 5641 5643 5644 5645 5645 5641 5639 5640 5641 5643 5645 5647 5650 5652 5654 5656 5658 5660 5662 5663 5665 5665 5667 5666 5666 5667 5668 5668 5669 5671 5671 5672 5673 5673 5675 5675 5676 5676
5604 5608 5613 5619 5625 5632 5636 5637 5638 5639 5639 5639 5636 5634 5634 5637 5639 5642 5645 5647 5649 5651 5653 5656 5658 5661 5661 5662 5662 5662 5662 5663 5663 5664 5665 5666 5667 5668 5668 5668 5669 5670 5670
5592 5598 5602 5607 5612 5620 5625 5628 5630 5631 5632 5633 5633 5633 5632 5630 5632 5635 5638 5640 5643 5645 5648 5650 5653 5654 5654 5656 5658 5658 5658 5658 5659 5660 5660 5660 5661 5662 5662 5663 5663 5664 5663
5578 5582 5588 5595 5599 5605 5611 5616 5619 5622 5624 5625 5625 5627 5628 5629 5627 5628 5632 5635 5637 5639 5641 5644 5646 5647 5648 5648 5650 5653 5654 5654 5654 5655 5656 5657 5657 5657 5658 5659 5660 5660 5660
5563 5569 5572 5578 5585 5591 5596 5600 5606 5609 5612 5615 5616 5617 5619 5621 5624 5625 5624 5627 5629 5630 5633 5636 5639 5640 5642 5642 5643 5646 5647 5648 5650 5651 5651 5652 5653 5654 5654 5655 5656 5655 5656
5549 5554 5559 5564 5570 5575 5580 5584 5590 5593 5596 5599 5602 5604 5607 5610 5614 5617 5618 5620 5623 5624 5624 5626 5629 5631 5633 5635 5638 5640 5640 5642 5645 5646 5648 5648 5648 5649 5650 5652 5652 5651 5650
5535 5538 5542 5547 5552 5557 5563 5568 5573 5577 5579 5581 5582 5586 5590 5595 5599 5601 5607 5611 5612 5615 5617 5618 5618 5621 5624 5628 5630 5632 5635 5637 5639 5642 5644 5644 5645 5645 5646 5646 5647 5646 5649
5521 5524 5527 5531 5533 5538 5545 5550 5557 5558 5561 5565 5566 5570 5573 5577 5583 5588 5591 5594 5599 5603 5607 5609 5611 5612 5613 5613 5616 5623 5628 5631 5633 5636 5639 5641 5641 5641 5641 5643 5643 5642 5644
5501 5503 5506 5509 5512 5514 5518 5522 5525 5533 5540 5543 5546 5551 5556 5561 5566 5572 5576 5580 5583 5586 5593 5597 5599 5601 5603 5604 5607 5609 5615 5623 5626 5630 5633 5635 5637 5636 5637 5637 5638 5638 5639
5484 5485 5487 5489 5491 5493 5495 5500 5507 5514 5518 5524 5528 5531 5535 5541 5548 5553 5559 5564 5570 5574 5579 5583 5587 5590 5593 5596 5599 5603 5600 5610 5615 5620 5624 5626 5628 5630 5631 5631 5631 5631 5631
5462 5463 5465 5468 5470 5474 5476 5479 5481 5485 5489 5495 5501 5508 5515 5521 5528 5535 5541 5546 5553 5559 5565 5571 5573 5578 5580 5586 5587 5592 5597 5600 5603 5610 5613 5618 5620 5621 5622 5623 5624 5624 5624
5443 5443 5445 5447 5449 5452 5455 5456 5459 5462 5465 5473 5480 5488 5495 5502 5507 5515 5521 5527 5533 5541 5550 5556 5562 5565 5570 5575 5579 5581 5585 5589 5593 5596 5602 5606 5609 5614 5616 5617 5618 5618 5618
5424 5423 5423 5426 5427 5429 5432 5434 5436 5439 5442 5449 5455 5462 5472 5478 5486 5492 5499 5506 5515 5520 5527 5539 5547 5553 5559 5563 5567 5571 5576 5579 5583 5587 5589 5594 5596 5604 5606 5608 5609 5610 5610